IRIDIUM 64 [+]

Last updated on Thu May 10 2018 01:19:49 GMT+0100 (British Summer Time)

1 25287U 98021C 18129.39409680 .00000124 00000-0 37252-4 0 9994 2 25287 86.3949 87.6300 0002142 86.9347 273.2094 14.34215042 51756
UTC large
Height (km)
Speed (km/s)
/
Latitude / Longitude
Inclination (degrees)
Orbital Period (minutes)
Azimuth
Elevation
Range (km)
Doppler Factor

Next 0 passes for location: London (51.5072 / 0.1276)

Sorry there are no passes over London.